Date String (YYYY-MM-DD hh:mm:ss) UTC,Instrument flags,absolute air pressure of the measurement (hPa),sample flow rate (lpm),inlet stack bypass flow (lpm),air temperature of the measurement (°C),ambient temperature measured by the external sensor (°C),aerosol sample conditioner tube jacket temperature (°C),OPC LED temperature (°C),internal box temperature (°C),relative humidity of the measurement (%),span deviation,mass concentration of particles derived from Lorenz-Mie calculation of OPC scattering (μg/m³),mass concentration of particles derived from Lorenz-Mie calculation of OPC scattering (μg/m³),mass concentration of particles derived from Lorenz-Mie calculation of OPC scattering (μg/m³)
DateTimeUTC,F1_M11,P_M11,Q1_M11,Q2_M11,T1_M11,T2_M11,T3_M11,T4_M11,T5_M11,U1_M11,ZSPAN_M11,X0_M11,X2_M11,X1_M11
2024-02-22 10:00:00,SystemResetWarning,0827.6,5.01,000.00,020.6,020.0,000.0,029.1,022.4,22.6,0000.0,0003.49,0001.44,0001.05
2024-02-22 10:01:00,SystemResetWarning,0827.6,5.01,000.00,020.6,020.0,000.0,029.1,022.4,22.6,0000.0,0002.93,0001.40,0001.04
2024-02-22 10:02:00,SystemResetWarning,0827.7,5.00,000.00,020.6,020.0,000.0,029.1,022.4,22.6,0000.0,0002.96,0001.38,0001.05
2024-02-22 10:03:00,SystemResetWarning,0827.7,4.99,000.00,020.6,020.0,000.0,029.1,022.4,22.6,0000.0,0003.02,0001.40,0001.04
2024-02-22 10:04:00,SystemResetWarning,0827.7,5.00,000.00,020.6,020.0,000.0,029.1,022.4,22.6,0000.0,0002.96,0001.37,0001.04
2024-02-22 10:05:00,SystemResetWarning,0827.7,5.01,000.00,020.6,020.0,000.0,029.1,022.4,22.6,0000.0,0002.94,0001.35,0001.03
2024-02-22 10:06:00,SystemResetWarning,0827.7,5.01,000.00,020.6,020.0,000.0,029.1,022.4,22.6,0000.0,0002.92,0001.35,0001.03
2024-02-22 10:07:00,SystemResetWarning,0827.7,5.00,000.00,020.6,020.0,000.0,029.0,022.4,22.6,0000.0,0002.94,0001.36,0001.04
2024-02-22 10:08:00,SystemResetWarning,0827.7,4.99,000.00,020.5,020.0,000.0,029.0,022.4,22.6,0000.0,0002.86,0001.33,0001.03
2024-02-22 10:09:00,SystemResetWarning,0827.7,4.99,000.00,020.5,020.0,000.0,029.0,022.4,22.6,0000.0,0002.92,0001.36,0001.03
2024-02-22 10:10:00,SystemResetWarning,0827.7,4.99,000.00,020.5,019.9,000.0,029.0,022.3,22.6,0000.0,0002.98,0001.36,0001.04
2024-02-22 10:11:00,SystemResetWarning,0827.7,5.01,000.00,020.5,019.9,000.0,029.0,022.3,22.7,0000.0,0002.90,0001.39,0001.04
2024-02-22 10:12:00,SystemResetWarning,0827.7,5.01,000.00,020.5,019.9,000.0,029.0,022.3,22.7,0000.0,0002.48,0001.39,0001.04
2024-02-22 10:13:00,SystemResetWarning,0827.7,5.00,000.00,020.5,019.9,000.0,029.0,022.3,22.7,0000.0,0002.32,0001.36,0001.04
2024-02-22 10:14:00,SystemResetWarning,0827.7,4.99,000.00,020.5,019.9,000.0,029.0,022.3,22.7,0000.0,0002.32,0001.37,0001.05
2024-02-22 10:15:00,SystemResetWarning,0827.7,5.00,000.00,020.5,019.9,000.0,029.0,022.3,22.7,0000.0,0002.36,0001.39,0001.05
2024-02-22 10:16:00,SystemResetWarning,0827.7,5.01,000.00,020.5,019.9,000.0,029.0,022.3,22.8,0000.0,0002.39,0001.40,0001.05
2024-02-22 10:17:00,SystemResetWarning,0827.7,5.01,000.00,020.5,019.9,000.0,029.0,022.3,22.8,0000.0,0002.49,0001.45,0001.07
2024-02-22 10:18:00,SystemResetWarning,0827.8,5.00,000.00,020.5,019.9,000.0,029.0,022.3,22.8,0000.0,0002.60,0001.49,0001.08
2024-02-22 10:19:00,SystemResetWarning,0827.8,5.00,000.00,020.5,019.9,000.0,029.0,022.3,22.8,0000.0,0002.65,0001.50,0001.08
2024-02-22 10:20:00,SystemResetWarning,0827.8,4.99,000.00,020.5,019.8,000.0,029.0,022.2,22.8,0000.0,0002.54,0001.51,0001.09
2024-02-22 10:21:00,SystemResetWarning,0827.8,4.99,000.00,020.4,019.8,000.0,029.0,022.2,22.8,0000.0,0002.57,0001.52,0001.09
2024-02-22 10:22:00,SystemResetWarning,0827.8,5.00,000.00,020.4,019.8,000.0,029.0,022.2,22.8,0000.0,0002.40,0001.50,0001.10
2024-02-22 10:23:00,SystemResetWarning,0827.9,5.01,000.00,020.4,019.8,000.0,028.9,022.2,22.9,0000.0,0002.33,0001.49,0001.12
2024-02-22 10:24:00,SystemResetWarning,0827.9,5.00,000.00,020.4,019.8,000.0,028.9,022.2,22.9,0000.0,0002.43,0001.52,0001.13
2024-02-22 10:25:00,SystemResetWarning,0827.8,4.99,000.00,020.4,019.8,000.0,028.9,022.2,22.9,0000.0,0002.54,0001.55,0001.14
2024-02-22 10:26:00,SystemResetWarning,0827.9,4.99,000.00,020.4,019.8,000.0,028.9,022.2,22.8,0000.0,0002.48,0001.52,0001.15
2024-02-22 10:27:00,SystemResetWarning,0827.8,5.01,000.00,020.4,019.8,000.0,028.9,022.2,22.8,0000.0,0002.62,0001.58,0001.17
2024-02-22 10:28:00,SystemResetWarning,0827.8,5.00,000.00,020.4,019.8,000.0,028.9,022.2,22.9,0000.0,0002.58,0001.57,0001.18
2024-02-22 10:29:00,SystemResetWarning,0827.8,4.99,000.00,020.4,019.8,000.0,028.9,022.2,22.9,0000.0,0002.49,0001.55,0001.18
2024-02-22 10:30:00,SystemResetWarning,0827.9,4.99,000.00,020.4,019.8,000.0,028.9,022.2,22.9,0000.0,0002.78,0001.57,0001.20
2024-02-22 10:31:00,SystemResetWarning,0827.9,4.99,000.00,020.4,019.8,000.0,028.9,022.2,22.9,0000.0,0004.40,0001.61,0001.22
2024-02-22 10:32:00,SystemResetWarning,0828.1,5.01,000.00,020.3,019.8,000.0,028.9,022.2,23.0,0000.0,0004.20,0001.56,0001.22
2024-02-22 10:33:00,SystemResetWarning,0828.1,5.01,000.00,020.3,019.8,000.0,028.9,022.2,23.1,0000.0,0004.24,0001.58,0001.23
2024-02-22 10:34:00,SystemResetWarning,0828.1,5.01,000.00,020.3,019.8,000.0,028.9,022.2,23.0,0000.0,0004.39,0001.66,0001.25
2024-02-22 10:35:00,SystemResetWarning,0828.1,5.00,000.00,020.3,019.8,000.0,028.9,022.2,23.0,0000.0,0004.46,0001.70,0001.27
2024-02-22 10:36:00,SystemResetWarning,0828.1,4.99,000.00,020.3,019.8,000.0,028.9,022.2,23.0,0000.0,0004.48,0001.70,0001.28
2024-02-22 10:37:00,SystemResetWarning,0828.1,5.00,000.00,020.3,019.8,000.0,028.9,022.2,22.9,0000.0,0005.01,0001.79,0001.30
2024-02-22 10:38:00,SystemResetWarning,0828.1,5.01,000.00,020.4,019.8,000.0,028.9,022.2,22.9,0000.0,0004.94,0001.76,0001.29
2024-02-22 10:39:00,SystemResetWarning,0828.0,5.01,000.00,020.4,019.8,000.0,028.9,022.2,23.0,0000.0,0005.07,0001.81,0001.30
2024-02-22 10:40:00,SystemResetWarning,0828.1,5.00,000.00,020.4,019.8,000.0,028.9,022.2,23.0,0000.0,0005.76,0001.83,0001.29
2024-02-22 10:41:00,SystemResetWarning,0828.0,5.00,000.00,020.4,019.8,000.0,028.9,022.2,23.0,0000.0,0006.36,0001.82,0001.28
2024-02-22 10:42:00,SystemResetWarning,0828.1,4.99,000.00,020.4,019.8,000.0,028.9,022.2,22.9,0000.0,0004.65,0001.78,0001.27
2024-02-22 10:43:00,SystemResetWarning,0828.0,4.99,000.00,020.4,019.8,000.0,028.9,022.2,22.9,0000.0,0004.70,0001.80,0001.28
2024-02-22 10:44:00,SystemResetWarning,0828.1,5.00,000.00,020.4,019.8,000.0,028.9,022.2,23.0,0000.0,0004.67,0001.79,0001.29
2024-02-22 10:45:00,SystemResetWarning,0828.0,5.00,000.00,020.4,019.8,000.0,028.9,022.2,23.0,0000.0,0004.64,0001.74,0001.27
2024-02-22 10:46:00,SystemResetWarning,0827.8,5.00,000.00,020.4,019.8,000.0,028.9,022.2,22.9,0000.0,0005.13,0001.71,0001.26
2024-02-22 10:47:00,SystemResetWarning,0827.8,5.00,000.00,020.4,019.8,000.0,028.9,022.2,22.9,0000.0,0005.08,0001.69,0001.25
2024-02-22 10:48:00,SystemResetWarning,0827.8,5.01,000.00,020.4,019.8,000.0,028.9,022.2,22.9,0000.0,0004.52,0001.61,0001.24
2024-02-22 10:49:00,SystemResetWarning,0827.8,5.00,000.00,020.4,019.8,000.0,028.9,022.2,22.9,0000.0,0004.51,0001.60,0001.24
2024-02-22 10:50:00,SystemResetWarning,0827.8,5.00,000.00,020.4,019.8,000.0,028.9,022.2,22.9,0000.0,0005.96,0001.58,0001.23
2024-02-22 10:51:00,SystemResetWarning,0827.8,5.00,000.00,020.4,019.8,000.0,028.9,022.2,22.9,0000.0,0005.75,0001.59,0001.23
2024-02-22 10:52:00,SystemResetWarning,0827.8,5.00,000.00,020.4,019.8,000.0,028.9,022.2,22.8,0000.0,0004.64,0001.56,0001.24
2024-02-22 10:53:00,SystemResetWarning,0827.8,5.00,000.00,020.4,019.8,000.0,028.8,022.2,22.8,0000.0,0004.58,0001.54,0001.23
2024-02-22 10:54:00,SystemResetWarning,0827.8,5.00,000.00,020.4,019.8,000.0,028.9,022.2,22.8,0000.0,0004.62,0001.53,0001.22
2024-02-22 10:55:00,SystemResetWarning,0827.8,5.00,000.00,020.3,019.8,000.0,028.9,022.2,22.8,0000.0,0004.66,0001.54,0001.21
2024-02-22 10:56:00,SystemResetWarning,0827.8,5.00,000.00,020.3,019.8,000.0,028.9,022.2,22.8,0000.0,0005.11,0001.53,0001.19
2024-02-22 10:57:00,SystemResetWarning,0827.8,5.00,000.00,020.3,019.7,000.0,028.9,022.2,22.8,0000.0,0005.15,0001.53,0001.19
2024-02-22 10:58:00,SystemResetWarning,0827.8,5.00,000.00,020.3,019.7,000.0,028.9,022.1,22.8,0000.0,0005.13,0001.53,0001.18
2024-02-22 10:59:00,SystemResetWarning,0827.8,4.99,000.00,020.3,019.7,000.0,028.9,022.2,22.8,0000.0,0005.18,0001.53,0001.18
